www.pogodaiklimat.ru

Погода и климат >> Архив погоды >> Парагвай >> Villarrica


ПОГОДА в Villarrica

  • Прогноз погоды в Villarrica
  • Монитор погоды в Villarrica
  • Климат города

АРХИВ ПОГОДЫ в Villarrica

Время (UTC), дата Ветер
(напр.,м/с)
 
Видим.   Явления Облачность Т
(С)
Тd
(С)
f
(%)
Тe
(С)
Тes
(С)
Комфортность P
(гПа)
Po
(гПа)
Тmin
(С)
Tmax
(С)
R
(мм)
R24
(мм)
S
(см)
03 16.06 Ю 2 20 км 9/0 2000 м
[Ac As]
+7.8 +5.8 87 +6 +6 1031.5 1011.2
09 16.06 Ю 3 20 км ясно +4.0 +3.4 96 0 0 1029.9 1009.4
12 16.06 Ю 3 20 км ясно +4.6 +3.1 90 +1 +3 1029.8 1009.4 +3.6
15 16.06 Ю 3 20 км ясно +9.2 +3.6 68 +7 +15 1030.2 1010.0
18 16.06 Ю 2 20 км ясно +15.0 +4.2 48 +15 +21 1026.7 1007.0
21 16.06 Ю 1 20 км ясно +12.6 +5.3 61 +13 +13 1026.6 1006.8
00 17.06 Ю 2 20 км ясно +9.6 +1.1 55 +8 +8 1028.0 1008.0 +15.6
03 17.06 Ю 2 20 км ясно +8.0 +2.7 69 +6 +6 1028.2 1008.0
12 17.06 Ю 2 20 км ясно +5.0 +2.5 84 +2 +4 1029.8 1009.4 +4.0
15 17.06 Ю 2 20 км ясно +11.6 +3.4 57 +11 +20 1029.3 1009.4
00 18.06 Ю 2 20 км ясно +11.6 +3.4 57 +11 +11 1027.1 1007.2 +18.0
09 18.06 Ю 2 20 км ясно +6.0 +3.6 85 +4 +4 1027.5 1007.2
12 18.06 штиль 0 20 км ясно +7.4 +4.7 83 +7 +9 1027.6 1007.4 +5.0
15 18.06 ЮВ 1 20 км ясно +19.0 +9.1 53 +21 +31 комфорт 1026.9 1007.5
18 18.06 СВ 1 20 км ясно +23.0 +4.9 31 +23 +30 комфорт 1023.7 1004.7
00 19.06 штиль 0 20 км ясно +16.2 +15.8 97 +16 +16 1023.0 1003.5 +24.6
06 19.06 штиль 0 20 км ясно +12.2 +9.8 85 +12 +12 1022.5 1002.7
09 19.06 штиль 0 20 км ясно +14.8 +13.0 89 +14 +14 1020.9 1001.3
12 19.06 СВ 2 20 км ясно +18.0 +14.7 81 +19 +20 1023.1 1003.7 +7.4
15 19.06 СВ 3 20 км ясно +22.6 +15.0 62 +26 +34 жарко 1022.6 1003.6
18 19.06 СВ 3 20 км ясно +26.6 +15.8 52 +30 +35 душно 1019.0 1000.2
21 19.06 СВ 2 20 км ясно +25.4 +16.4 57 +29 +29 душно 1018.2 999.4
00 20.06 СВ 2 20 км ясно +20.8 +14.3 66 +24 +24 комфорт 1018.9 999.8 +27.5
03 20.06 СВ 2 20 км ясно +19.4 +15.0 76 +22 +22 комфорт 1019.0 999.8
06 20.06 СВ 2 20 км ясно +18.2 +14.5 79 +19 +19 1018.5 999.2
12 20.06 СВ 2 20 км ясно +18.4 +14.2 77 +20 +22 1020.7 1001.3 +15.6
15 20.06 СВ 3 20 км ясно +24.6 +15.0 55 +27 +35 жарко 1021.1 1002.2
18 20.06 С 2 20 км ясно +28.6 +18.0 53 +33 +39 очень
душно
1018.0 999.3
21 20.06 штиль 0 20 км ясно +28.0 +17.1 52 +32 +32 душно 1017.0 998.3
00 21.06 штиль 0 20 км ясно +21.8 +17.2 75 +26 +26 душно 1017.0 997.9 +29.4
03 21.06 штиль 0 20 км ясно +20.4 +18.0 86 +24 +24 комфорт 1016.9 997.7
12 21.06 штиль 0 20 км 5/0
[Cs]
+18.0 +16.4 90 +18 +20 1018.1 998.8 +17.0
15 21.06 С 3 20 км 3/0
[Ci sp]
+25.8 +16.5 56 +29 +37 душно 1018.5 999.6
18 21.06 С 3 20 км 5/0
[Cs]
+30.0 +17.1 46 +34 +39 очень
душно
1016.1 997.6
21 21.06 С 1 20 км 5/0
[Ci]
+28.2 +20.3 62 +35 +35 очень
душно
1016.8 998.1
00 22.06 штиль 0 20 км ясно +21.0 +17.6 81 +25 +25 комфорт 1017.5 998.3 +30.0
03 22.06 штиль 0 20 км ясно +20.2 +16.8 81 +23 +23 комфорт 1018.0 998.0
12 22.06 штиль 0 20 км ясно +16.6 +15.6 94 +16 +19 1016.5 997.2 +15.0
15 22.06 СВ 2 20 км ясно +26.2 +16.4 55 +30 +39 душно 1015.7 996.9
18 22.06 С 3 20 км 6/0
[Ci]
+29.6 +17.4 48 +34 +38 очень
душно
1012.5 994.0
00 23.06 СВ 1 20 км ясно +22.0 +17.1 74 +26 +26 душно 1012.1 993.1 +30.0

 

Местоположение метеостанции Villarrica (Парагвай): широта -25.75 долгота -56.43 высота над уровнем моря 161 м.

В архиве по умолчанию представлена погода в Villarrica за последнюю неделю. Архивные данные за месяц целиком и за предыдущие месяцы, начиная с января 2011 года, Вы можете получить, выбрав интересующий диапазон дат из раскрывающегося списка и нажав кнопку "Ввод!".


*Определитесь, кто Вы:
робот инопланетянин человек

Внимание! Время в таблицах - всемирное. Для получения местного времени необходимо прибавить поправку, которая в Villarrica равна -4 ч.

Смотрите также архив погоды в соседних городах и на ближайших метеорологических станциях:

Погода в Coronel Oviedo (Парагвай) (34 км)
Погода в Caazapa (Парагвай) (48 км)
Погода в Paraguari (Парагвай) (71 км)
Погода в Quyquyhat (Парагвай) (76 км)
Погода в Asuncion (Парагвай) (122 км)
Погода в San Estanislao (Парагвай) (122 км)
Погода в San Juan Bautista Misiones (Парагвай) (124 км)
Погода в Aeropuerto Int. Guarani (Парагвай) (162 км)
Погода в Capitan Meza (Парагвай) (180 км)
Погода в Encarnacion (Парагвай) (183 км)

Пояснения к столбцам:

Ветер - указаны скорость ветра в м/с - средняя за 10 мин, порывы в срок и между сроками (в фигурных скобках) и направление, откуда дует ветер: С - северный, СВ - северо-восточный, В - восточный, ЮВ - юго-восточный, Ю - южный, ЮЗ - юго-западный, З - западный, СЗ - северо-западный.
Видимость - горизонтальная дальность видимости в метрах или километрах. При видимости от 1 до 10 км при отсутствии осадков обычно наблюдается дымка, при ухудшении видимости до 1 км и менее - туман. В сухую погоду видимость может ухудшаться дымом, пылью или мглою.
Явления - указаны атмосферные явления, наблюдавшиеся в срок или в последний час перед сроком; фигурными скобками обозначены явления, наблюдавшиеся между сроками (за 1-3 часа до срока); квадратными скобками обозначены град или гололедные отложения с указанием их диаметра в мм.
Облачность - указаны через наклонную черту общая и нижняя облачность в баллах и высота нижней границы облаков в метрах; квадратными скобками обозначены формы облаков: Ci - перистые, Cs - перисто-слоистые, Cc - перисто-кучевые, Ac - высококучевые, As - высокослоистые, Sc - слоисто-кучевые, Ns - слоисто-дождевые, Cu - кучевые, Cb - кучево-дождевые. Подробнее классификацию облаков см. в Атласе облаков (PDF).
T - Температура воздуха - температура, измеренная на высоте 2 м над землей.
Td - Температура точки росы - температура, при понижении до которой содержащийся в воздухе водяной пар достигнет насыщения.
f - Относительная влажность воздуха - влажноcть воздуха, измеренная на высоте 2 м над землей.
Te - Эффективная температура - температура, которую ощущает одетый по сезону человек в тени. Характеристика душности погоды. При расчете учитывается влияние влажности воздуха и скорости ветра на теплоощущения человека.
Tes - Эффективная температура на солнце - температура, которую ощущает человек, с поправкой на солнечный нагрев. Характеристика знойности погоды. Зависит от высоты солнца над горизонтом, облачности и скорости ветра. Ночью, в пасмурную погоду, а также при ветре 12 м/с и более поправка равна нулю.
P - Атмосферное давление - приведенное к уровню моря атмосферное давление.
Po - Атмосферное давление - измеренное на уровне метеостанции атмосферное давление.
Tmin - Минимальная температура - минимум температуры воздуха на высоте 2 м над землей.
Tmax - Максимальная температура - максимум температуры воздуха на высоте 2 м над землей.
R - Количество осадков - Количество выпавших осадков за период времени, мм. При наведении курсора мыши на число - период времени, за который выпало указанное количество осадков.
R24 - Количество осадков - Количество выпавших осадков за 24 часа, мм.
S - Снежный покров - Высота снежного покрова, см. При наведении курсора мыши на число - состояние снежного покрова и степень покрытия местности в баллах.